Vorticity
7 7 7 7 7 7 7 7 7 7 7 7 6 6 6 6 6 6 6 6 5 5 5 5 5 5 5 5 5 5 4 4 4 4 4 4 4 4 4 4 4 4 4 4 4 5 5 5 5 5 5 5 5 5 6 6 6 6 6 6 7 7 7 8 8 8 9 9 9 9 9 9 9 9 9 9 8 8 8 7 7 6 6 6 6 5 5 5 5 5 5 5 5 5 5 5 5 5 5 5 5 5 5
7 7 7 7 6 6 6 6 6 6 6 6 6 6 6 5 5 5 5 5 5 5 5 5 5 5 5 5 5 5 4 4 4 4 4 4 4 4 3 3 3 3 3 3 3 4 4 4 4 4 4 5 5 5 5 5 5 5 5 5 6 6 6 6 7 7 7 7 7 7 8 8 8 8 9 9 9 9 9 9 8 8 8 7 7 7 6 6 6 6 6 6 6 6 6 5 5 5 5 5 5 5 5
7 7 7 7 6 6 6 6 6 5 5 5 5 5 5 5 5 5 5 5 4 4 4 4 4 4 4 4 4 4 4 4 4 4 4 4 4 3 3 3 3 3 3 3 3 3 3 3 3 3 3 4 4 4 4 4 4 4 4 4 5 5 5 5 6 6 6 6 6 6 6 6 6 6 7 7 7 8 8 8 8 8 8 8 8 7 7 7 7 7 7 7 7 6 6 6 6 6 6 6 6 5 5
7 7 7 7 7 6 6 6 6 5 5 5 5 5 5 5 5 5 5 5 4 4 4 4 4 4 4 4 4 4 4 4 4 4 4 4 4 4 3 3 3 3 3 2 2 2 2 2 2 2 2 2 2 3 3 3 3 3 3 3 4 4 4 4 4 5 5 6 6 6 6 6 6 6 6 6 6 6 6 7 7 7 7 7 7 7 7 7 7 7 7 7 7 7 7 7 7 7 7 7 7 7 6
7 7 7 7 7 7 6 6 6 6 6 6 6 5 5 5 5 5 5 5 5 5 5 5 5 4 4 4 4 4 4 4 4 4 4 4 4 4 4 4 4 3 3 3 3 2 2 2 2 2 2 2 2 2 2 2 2 2 2 2 2 3 3 3 3 3 4 4 5 5 5 6 6 6 6 6 6 6 6 6 6 6 6 6 6 6 6 6 6 6 7 7 7 7 7 7 7 7 8 8 8 8 8
7 7 7 7 7 7 7 7 7 7 7 6 6 6 6 6 6 6 6 6 6 6 6 6 6 6 6 6 6 6 6 5 5 5 6 5 5 5 5 5 5 5 4 4 4 3 3 3 2 2 2 2 2 1 1 1 1 1 1 1 2 2 2 2 2 2 3 3 3 4 4 4 5 5 5 6 6 6 6 6 6 6 6 6 6 6 6 6 6 6 6 6 6 6 6 6 6 7 7 7 8 8 8
7 7 7 7 7 7 7 7 7 7 7 7 7 7 7 7 7 7 7 7 8 8 8 8 8 8 8 8 8 8 7 7 7 7 7 7 7 7 7 7 7 7 6 6 6 5 5 5 4 4 3 3 3 2 2 2 2 1 1 1 1 1 1 1 1 2 2 2 2 3 3 3 4 4 4 5 5 5 6 6 6 6 7 7 7 7 7 6 6 6 6 5 5 5 5 5 5 5 6 6 6 7 7
6 6 6 6 6 6 7 7 7 7 7 7 7 7 8 8 8 8 8 8 9 9 9 9 9 9 9 9 9 9 9 9 9 9 9 9 9 9 9 9 9 9 9 9 9 8 8 8 7 7 6 6 5 5 4 4 3 3 2 2 2 2 2 2 2 2 2 2 2 2 2 2 3 3 3 3 4 4 4 5 5 5 6 6 6 7 7 7 7 7 7 6 6 6 5 5 5 5 4 5 5 5 5
5 5 5 5 6 6 6 6 6 6 6 7 7 7 7 7 7 8 8 8 8 8 9 9 9 9 9 9 10 10 9 10 10 10 10 10 10 10 10 10 10 10 11 10 10 10 10 10 10 10 9 9 8 8 7 7 6 5 5 4 4 4 3 3 3 2 2 2 2 2 2 2 2 2 3 3 3 3 3 4 4 4 4 4 5 5 6 6 6 6 7 7 7 7 6 6 6 5 5 5 4 4 4
5 5 5 5 5 5 5 5 5 6 6 6 6 6 6 6 6 7 7 7 7 7 7 8 8 8 8 8 9 9 9 9 9 9 9 9 9 9 9 9 10 10 10 10 11 11 11 11 11 11 11 11 11 10 10 10 9 9 8 8 7 6 6 5 5 4 4 4 3 3 3 3 2 2 2 2 3 3 3 3 3 3 3 3 3 4 4 5 5 5 5 6 6 6 7 6 6 6 6 6 6 5 5
5 5 5 5 5 5 5 5 5 5 5 5 5 6 6 6 6 6 6 6 6 6 6 6 7 7 7 7 7 8 8 8 8 8 8 8 8 8 8 8 8 8 9 9 9 10 10 10 10 11 11 11 11 11 12 11 11 11 11 10 10 9 9 8 8 7 6 6 5 5 4 4 3 3 3 3 2 2 2 3 3 3 3 3 3 3 3 3 4 4 4 4 5 5 5 6 6 6 6 6 6 6 6
6 6 6 6 6 5 5 5 5 5 5 5 5 6 6 6 6 6 6 6 6 6 6 6 6 6 6 6 6 6 7 7 7 7 7 7 7 7 7 7 7 7 7 7 7 8 8 8 9 9 9 10 10 10 11 11 11 11 11 11 11 11 11 11 10 9 9 8 8 7 6 5 5 4 4 3 3 3 3 2 2 2 2 2 2 2 2 3 3 3 3 3 3 4 4 4 4 5 5 5 6 6 6
6 6 6 6 6 6 6 6 6 6 6 6 6 6 6 6 6 6 6 6 6 6 5 5 5 5 5 5 6 6 6 6 6 6 6 6 6 6 6 6 6 6 6 6 6 6 7 7 7 7 8 8 8 9 9 9 10 10 10 11 11 11 11 11 11 11 11 10 10 9 8 8 7 6 6 5 4 4 3 3 3 3 2 2 2 2 2 2 2 2 2 2 2 3 3 3 3 3 4 4 4 5 5
6 6 6 6 6 6 6 6 6 6 6 6 6 6 6 6 6 6 6 5 5 5 5 5 5 5 5 5 5 5 5 5 5 5 5 5 6 6 6 6 6 6 6 6 6 6 6 6 6 6 7 7 7 7 8 8 8 8 9 9 9 10 10 10 11 11 11 11 11 11 10 10 9 8 8 7 6 6 5 4 4 4 3 3 3 2 2 2 2 2 2 2 2 2 2 2 2 2 2 3 3 3 4
6 6 6 6 6 6 6 6 6 6 5 5 5 5 5 5 5 5 5 5 5 5 5 5 5 5 5 5 5 5 5 5 5 5 5 5 5 5 5 5 6 6 6 6 6 6 6 6 6 6 6 7 7 7 7 7 7 8 8 8 8 8 9 9 9 10 10 10 11 11 11 11 10 10 9 9 8 8 7 6 6 5 4 4 4 3 3 3 3 2 2 2 2 2 2 2 2 2 2 2 2 2 3
6 6 6 6 6 6 6 5 5 5 5 5 5 5 5 5 5 5 5 5 5 5 4 5 5 4 4 4 4 4 4 4 4 4 4 4 5 5 5 5 5 5 5 6 6 6 6 6 6 6 6 7 7 7 7 7 7 7 7 8 8 8 8 8 8 8 9 9 9 10 10 10 11 11 10 10 10 9 9 8 8 7 6 6 5 5 4 4 4 3 3 3 3 3 3 3 3 2 2 2 2 2 2
5 5 5 5 5 5 5 5 5 5 5 5 5 5 4 4 4 4 4 4 4 4 4 4 4 4 4 4 4 4 4 4 4 4 4 4 4 4 4 4 4 5 5 5 5 5 5 6 6 6 6 6 6 7 7 7 7 7 7 8 8 8 8 8 8 8 8 8 8 9 9 9 10 10 10 10 10 10 10 10 9 9 8 8 7 6 6 6 5 5 4 4 4 4 3 3 3 3 3 3 3 3 3
5 5 5 5 5 5 5 5 5 4 4 4 4 4 4 4 4 4 4 4 3 3 3 3 3 3 3 3 3 3 3 3 3 4 4 4 4 4 4 4 4 4 4 4 4 4 4 5 5 5 5 5 6 6 6 6 6 7 7 7 8 8 8 8 8 8 8 8 8 8 8 9 9 9 9 10 10 10 10 10 10 10 9 9 8 8 7 7 7 6 6 6 5 5 5 4 4 4 4 4 4 4 3
5 5 5 5 5 5 4 4 4 4 4 4 4 4 3 3 3 3 3 3 3 3 3 3 3 3 3 3 3 3 3 3 3 3 3 3 3 4 4 4 4 4 4 4 4 4 4 4 4 4 4 4 5 5 5 5 5 6 6 6 7 7 7 8 8 8 8 8 8 8 9 9 9 9 9 9 9 9 9 9 9 9 9 9 9 9 8 8 8 7 7 7 6 6 6 5 5 5 5 5 5 4 4
5 5 5 5 4 4 4 4 4 4 4 4 3 3 3 3 3 3 3 3 3 2 2 2 2 2 3 3 3 3 3 3 3 3 3 3 3 3 4 4 4 4 4 4 4 4 4 4 4 4 4 4 4 4 4 4 4 5 5 5 5 5 6 6 7 7 7 8 8 8 8 9 9 9 9 9 9 9 9 9 9 9 9 9 9 9 9 8 8 8 8 7 7 7 6 6 6 6 6 5 5 5 5
5 5 5 4 4 4 4 4 4 4 4 4 3 3 3 3 3 3 3 3 2 2 2 2 2 2 2 2 3 3 3 3 3 3 3 3 3 3 3 3 4 4 4 4 4 4 4 4 4 4 4 4 4 4 4 4 4 4 4 4 4 4 5 5 5 6 6 6 7 7 7 8 8 8 9 9 9 9 9 9 9 9 9 9 9 9 8 8 8 8 8 8 7 7 7 6 6 6 6 6 6 6 6
5 4 4 4 4 4 4 4 4 4 4 4 3 3 3 3 3 3 3 3 3 3 3 3 3 3 3 3 3 3 3 3 3 3 3 3 3 3 3 3 3 3 3 3 3 3 3 4 4 4 4 4 4 4 4 4 4 4 4 4 4 4 4 4 4 5 5 5 5 6 6 6 7 7 8 8 9 9 9 9 9 9 9 9 9 9 8 8 8 8 8 8 8 7 7 7 7 6 6 6 6 6 6
4 4 4 4 4 4 4 4 4 4 4 4 4 3 3 3 3 3 3 3 3 3 3 3 3 3 3 3 3 3 3 3 3 3 3 3 3 3 3 3 3 3 3 3 3 3 3 3 3 3 3 3 3 3 3 3 3 3 4 4 4 4 4 4 4 4 4 4 5 5 5 5 6 6 7 7 7 8 8 9 9 9 9 9 9 9 9 8 8 8 8 8 8 7 7 7 7 7 6 6 6 6 6
5 5 5 5 5 4 4 4 4 4 4 4 4 3 3 3 3 3 3 3 3 3 3 3 3 3 3 3 3 3 3 3 3 3 3 3 3 3 3 3 3 3 3 3 3 3 3 3 3 3 3 3 3 3 3 3 3 3 3 3 3 3 3 3 3 3 4 4 4 4 4 5 5 6 6 6 7 7 8 8 8 9 9 9 9 9 9 9 9 8 8 8 7 7 7 7 7 7 7 6 6 6 6
5 5 4 5 5 4 4 4 4 4 4 4 4 4 3 3 3 3 3 3 3 3 3 3 3 3 3 3 3 3 3 3 3 3 3 3 3 3 3 3 3 3 2 2 2 2 2 2 2 2 3 3 3 3 3 3 3 3 3 3 3 3 3 3 3 3 3 3 4 4 4 4 4 5 5 6 6 6 7 7 8 8 9 9 9 9 10 10 10 9 9 8 8 7 7 7 7 7 7 7 6 6 6
5 4 4 5 5 4 4 4 4 4 4 4 4 4 3 3 3 3 3 3 3 3 3 3 3 3 3 3 3 3 3 3 3 3 3 3 3 3 3 3 3 2 2 2 2 2 2 2 2 2 2 2 2 2 2 2 2 3 3 3 3 3 3 3 3 3 3 3 3 4 4 4 4 4 4 5 5 6 6 7 7 8 8 8 9 9 9 10 10 10 10 9 9 8 8 7 7 7 7 7 6 6 6
4 4 4 4 4 4 4 4 4 4 3 3 4 4 3 3 3 3 3 3 3 3 3 3 3 3 3 3 3 3 3 3 3 3 3 3 3 3 3 3 2 2 2 2 2 2 2 2 2 2 2 2 2 2 2 2 2 2 2 3 3 3 3 3 3 3 3 3 3 4 4 4 4 4 4 5 5 5 6 6 7 7 8 8 8 9 9 9 9 10 10 10 10 10 9 8 8 7 7 7 6 6 6
4 4 4 4 4 4 4 4 3 3 3 3 3 4 3 3 3 3 3 3 3 3 3 3 3 3 3 3 3 3 3 3 3 3 3 3 3 2 2 2 2 2 2 2 2 2 2 2 2 2 2 2 2 2 2 2 2 2 2 2 3 3 3 3 3 3 3 3 3 4 4 4 4 4 5 5 5 5 6 6 6 7 7 8 8 8 9 9 9 9 10 10 10 10 10 9 9 8 7 7 7 6 6
4 4 4 4 4 3 3 3 3 3 3 3 3 3 4 3 3 3 3 3 3 3 3 3 3 3 3 3 3 3 3 3 3 3 3 3 3 2 2 2 2 2 2 2 2 2 2 2 2 2 2 2 2 2 2 2 2 3 3 3 3 3 3 3 3 3 3 3 3 4 4 4 5 5 5 5 6 6 6 6 7 7 7 8 8 8 8 9 9 9 9 10 10 10 10 10 10 9 8 8 7 7 7
4 4 4 4 4 3 3 3 3 3 3 3 3 3 3 3 3 3 3 3 3 3 3 3 3 3 3 3 3 3 2 2 3 3 3 2 2 2 2 2 2 2 2 2 2 2 2 3 3 3 3 3 3 3 3 3 3 3 3 3 3 3 3 3 3 3 3 3 4 4 4 5 5 5 6 6 6 6 7 7 7 7 8 8 8 8 8 9 9 9 9 9 10 10 10 10 10 10 9 9 8 7 7
4 4 4 4 4 4 3 3 3 3 3 3 3 3 3 3 3 3 3 3 3 3 3 3 3 3 3 2 2 2 2 2 2 2 2 2 2 2 2 2 2 2 2 2 3 3 3 3 3 3 3 3 4 4 4 4 4 4 4 4 4 4 4 4 4 4 4 4 4 4 5 5 5 6 6 7 7 7 8 8 8 8 8 8 8 8 9 9 9 9 9 9 9 10 10 10 11 11 10 10 9 8 7
4 4 4 4 4 4 3 3 3 3 3 3 3 3 3 3 3 3 3 3 3 3 3 3 3 3 2 2 2 2 2 2 2 2 2 2 2 2 2 2 2 2 2 3 3 3 3 3 3 4 4 4 4 4 4 4 4 4 4 4 4 4 4 4 4 4 4 4 5 5 5 6 6 7 7 7 8 8 8 8 8 9 9 9 9 9 9 9 9 9 9 10 10 10 10 10 10 11 11 11 10 9 8
4 4 4 4 4 3 3 3 3 3 3 3 3 3 3 3 3 3 3 3 3 3 3 2 2 2 2 2 2 2 2 2 2 2 2 2 2 2 2 2 2 2 2 3 3 3 3 3 4 4 4 4 4 5 5 5 5 5 5 5 4 4 4 4 4 4 5 5 5 6 6 7 7 7 8 8 8 8 9 9 9 9 9 9 9 9 9 9 10 10 10 10 10 10 10 10 10 11 11 11 11 10 9
4 4 4 4 4 3 3 3 3 2 3 3 3 3 3 3 3 3 3 3 3 3 2 2 2 2 2 2 2 2 2 2 2 2 2 2 2 2 2 2 2 2 3 3 3 3 4 4 4 4 4 4 5 5 5 5 5 5 5 5 5 5 5 5 5 5 5 6 6 7 7 7 8 8 8 8 9 9 9 9 9 9 9 9 9 9 10 10 10 10 10 11 11 11 11 11 11 11 11 11 11 11 10
4 4 4 4 4 3 3 3 2 2 2 3 3 3 3 3 3 3 3 2 2 2 2 2 2 2 3 3 3 3 2 2 2 2 2 2 2 2 2 2 3 3 3 3 3 4 4 4 4 4 5 5 5 5 5 5 5 6 6 6 6 6 6 6 6 6 6 7 7 7 8 8 8 8 9 9 9 9 9 9 9 9 9 9 9 9 9 10 10 10 11 11 11 12 12 12 11 11 11 11 12 12 11
4 4 4 4 3 3 3 3 2 2 2 3 3 3 3 3 2 3 3 2 2 2 2 2 2 2 3 3 3 3 3 2 2 2 2 2 2 2 3 3 3 3 3 4 4 4 4 4 5 5 5 5 5 6 6 6 6 6 6 7 7 7 7 7 7 7 7 8 8 8 8 8 8 9 9 9 9 9 9 9 9 9 9 9 9 9 9 9 9 10 10 11 12 12 12 12 12 12 11 11 12 12 12
4 4 4 4 3 3 3 2 2 3 3 3 3 3 3 3 3 3 3 3 3 3 3 2 2 2 2 3 3 3 3 2 3 3 3 3 3 3 3 3 3 4 4 4 4 4 5 5 5 5 6 6 6 6 7 7 7 7 7 7 8 8 8 8 8 8 8 8 9 9 9 9 9 9 9 9 9 9 9 9 9 9 9 9 9 9 9 9 9 9 10 10 11 12 13 13 13 13 12 12 12 12 12
4 4 4 4 3 3 3 2 2 3 3 3 3 3 3 3 3 3 3 3 3 3 3 3 3 2 2 2 2 3 3 3 3 3 3 3 3 3 4 4 4 4 4 5 5 5 5 5 6 6 6 7 7 7 8 8 8 8 8 8 9 9 9 9 9 9 9 9 9 9 9 9 9 9 9 9 9 9 9 9 9 9 9 9 9 9 9 9 9 9 9 10 11 12 12 13 13 13 13 12 12 12 12
5 4 4 4 4 3 3 3 2 3 3 3 3 3 3 3 3 3 3 3 3 3 3 3 3 3 3 2 2 2 3 3 3 3 3 3 4 4 4 4 4 4 5 5 5 5 6 6 6 7 7 8 8 8 8 8 9 9 9 9 9 10 10 10 10 10 10 9 9 9 9 9 9 9 8 8 8 8 8 8 8 8 8 8 9 9 9 9 9 9 9 10 10 11 12 13 13 13 13 13 12 12 12
5 5 4 4 4 3 3 3 2 3 3 3 3 3 3 3 3 3 4 3 4 3 3 3 3 3 3 3 2 3 3 3 3 3 3 4 4 4 4 5 5 5 5 6 6 6 6 7 7 8 8 8 9 9 9 9 9 9 10 10 10 10 10 10 10 10 10 10 9 9 9 9 9 9 9 8 8 8 8 8 8 8 8 8 8 8 8 9 9 9 10 10 10 11 12 13 13 13 13 13 13 12 12
5 5 4 4 3 3 3 3 3 3 3 3 3 3 3 3 4 4 4 4 4 4 4 3 3 3 3 3 3 3 3 3 3 3 4 4 4 5 5 5 6 6 6 6 7 7 7 8 8 8 9 9 9 9 9 9 10 10 10 10 10 10 10 10 10 10 10 10 10 9 9 9 9 9 9 9 8 8 8 8 8 8 8 8 8 8 8 8 9 9 10 10 10 11 12 13 13 13 13 13 13 12 12
5 4 4 4 3 3 3 3 3 3 3 3 3 4 4 4 4 4 4 4 4 4 4 3 3 3 3 3 3 3 3 3 3 4 4 4 5 5 6 6 6 7 7 7 7 8 8 8 9 9 9 9 9 9 9 9 10 10 10 10 10 10 10 10 10 10 10 10 10 9 9 9 9 9 9 9 9 9 9 8 8 8 8 8 8 8 8 8 8 9 10 10 10 11 11 12 13 13 14 13 13 12 12
5 4 4 4 3 3 3 3 3 3 3 4 4 4 4 4 4 4 4 4 4 4 4 3 3 3 3 3 3 3 3 4 4 4 5 5 5 6 6 7 7 7 8 8 8 8 8 8 9 9 9 9 9 9 9 9 9 9 9 9 9 9 9 9 9 9 9 9 9 9 9 9 9 9 9 9 9 9 9 9 9 9 9 9 9 9 8 8 9 9 10 10 10 11 11 12 12 13 14 14 13 13 12
5 4 4 3 3 3 3 3 3 3 4 4 4 4 4 4 4 4 4 4 4 4 4 4 3 3 3 3 3 3 4 4 5 5 5 6 6 7 7 7 7 8 8 8 8 8 8 8 8 9 9 9 9 9 9 9 9 9 9 8 8 8 8 8 8 8 8 8 8 8 8 9 9 9 9 9 9 9 9 9 9 9 9 9 9 9 9 9 9 10 10 10 11 11 11 11 12 13 14 14 14 13 13
4 4 4 3 3 3 3 3 4 4 4 4 4 4 4 4 4 4 4 4 4 4 4 4 4 3 3 3 3 4 4 4 5 6 6 6 7 7 8 8 8 8 8 7 7 7 8 8 8 8 8 8 8 8 9 8 8 8 8 8 8 8 8 7 7 7 7 7 7 7 8 8 8 8 8 8 8 9 9 9 9 9 9 9 10 10 10 10 10 10 11 11 11 11 10 10 11 12 12 13 14 14 13
4 4 3 3 3 3 3 4 4 4 4 4 4 4 4 4 4 4 4 4 4 4 4 4 4 4 4 4 4 4 5 5 6 6 7 7 7 8 8 8 8 7 7 7 7 7 8 8 8 8 8 8 8 8 8 8 8 8 8 7 7 7 7 7 7 6 6 6 6 7 7 7 7 7 8 8 8 8 8 8 8 9 9 9 10 10 10 10 11 11 11 11 11 11 10 10 10 11 11 12 13 13 13
4 4 3 3 3 4 4 4 4 4 4 4 4 4 4 4 4 4 4 4 4 4 4 4 4 4 4 5 5 5 5 6 6 7 7 7 8 8 8 8 7 7 7 7 7 8 8 8 8 8 8 8 7 7 7 7 7 7 7 7 7 7 6 6 6 6 6 6 6 6 6 6 6 6 7 7 7 7 7 8 8 8 9 9 10 10 10 11 11 11 12 12 11 11 10 10 10 10 11 11 11 12 12
4 4 3 4 4 4 4 4 4 4 4 4 4 4 4 4 4 4 4 4 4 4 4 4 4 5 5 5 5 6 6 6 7 7 7 8 8 7 7 7 7 7 7 7 7 7 8 8 8 7 7 7 7 7 7 7 7 7 6 6 6 6 6 6 5 5 5 5 5 5 5 6 6 6 6 6 6 7 7 7 7 8 8 8 9 10 10 11 11 12 12 12 11 11 11 10 10 10 10 10 10 10 11
4 4 4 4 4 4 4 4 4 4 4 4 4 4 4 4 4 4 4 4 4 4 4 4 4 5 5 6 6 6 7 7 7 7 7 7 7 7 7 6 6 6 7 7 7 7 8 8 7 7 7 7 7 7 8 7 7 6 6 6 6 6 5 5 5 5 5 5 5 5 6 6 6 6 7 6 6 7 7 7 7 7 8 8 8 9 10 10 11 12 12 12 12 11 11 11 11 10 10 9 9 9 9
4 4 5 5 5 4 4 4 4 4 4 4 4 4 3 3 3 3 3 4 4 4 4 5 5 5 5 6 7 7 7 7 7 7 7 7 7 6 6 6 6 6 7 7 8 8 8 7 7 7 7 7 8 8 8 7 6 6 6 5 5 5 5 4 4 4 4 5 5 5 6 6 7 7 8 8 8 7 7 7 7 8 8 8 8 8 9 10 11 11 12 12 12 12 12 12 11 11 10 9 8 8 8
5 5 5 5 4 4 4 4 4 4 4 4 4 3 3 3 4 4 4 4 4 4 4 5 6 6 6 7 7 7 7 7 7 7 7 7 6 6 5 6 6 7 8 7 7 7 7 7 7 7 7 8 8 8 7 7 6 5 5 5 5 5 5 4 4 4 4 5 5 6 6 7 8 9 9 9 9 9 9 8 8 8 8 8 8 8 8 10 10 11 12 12 12 13 13 13 12 11 10 8 7 7 7
5 5 4 4 4 4 4 4 4 4 4 4 4 4 4 4 4 4 4 4 4 5 5 5 6 7 7 7 7 7 7 7 7 6 6 6 6 5 5 6 8 9 9 9 8 7 6 6 6 7 7 8 8 8 7 6 6 5 5 5 5 4 4 4 4 4 4 5 5 6 7 8 8 9 10 11 11 11 11 10 10 10 10 9 8 8 8 9 10 11 12 12 13 14 14 14 13 11 9 8 7 6 7
4 4 4 4 4 4 3 4 4 4 4 4 4 4 4 4 4 4 4 5 5 5 6 6 6 7 8 7 7 7 7 6 6 6 5 5 6 6 6 7 8 9 9 10 10 9 6 6 6 6 7 7 8 7 7 6 5 5 5 4 4 4 4 4 4 4 4 5 5 6 7 8 9 10 11 12 13 13 13 12 12 11 11 10 9 8 8 10 11 11 12 12 13 15 15 15 13 11 9 7 6 6 6
4 4 4 4 4 4 4 4 4 4 4 4 4 4 4 5 5 5 5 5 6 6 6 6 6 7 7 7 7 7 6 6 6 5 5 5 6 7 8 8 8 9 9 9 10 10 7 6 7 8 7 7 7 7 7 5 5 5 5 5 5 4 4 4 4 4 4 5 6 6 8 9 10 11 12 13 13 13 14 14 13 13 12 11 9 8 8 10 12 12 12 12 14 15 16 16 14 11 9 7 6 5 6
5 5 4 4 4 4 4 4 4 4 4 4 4 4 5 5 5 5 6 6 6 6 7 7 6 6 6 7 7 6 6 6 5 5 5 5 5 6 8 10 10 10 9 6 6 8 9 8 9 10 9 7 6 7 6 5 6 6 5 5 4 4 4 4 4 4 5 5 6 7 9 10 11 12 14 14 14 13 13 13 14 13 12 11 9 8 8 11 13 13 12 13 14 16 16 15 14 11 8 6 5 5 6
5 5 5 5 4 4 4 4 4 4 4 5 5 5 5 5 6 6 6 6 7 7 6 7 6 6 6 6 6 6 6 6 6 5 5 6 6 6 7 10 10 11 10 8 7 7 9 12 12 11 8 6 6 7 7 6 6 6 5 4 4 4 4 4 4 4 5 6 7 9 11 12 14 15 16 15 14 13 12 12 13 13 12 11 10 9 9 12 14 15 14 14 15 16 16 15 13 10 8 6 5 5 6
5 5 5 5 5 5 4 5 5 5 5 5 5 6 6 6 6 6 7 7 7 6 6 6 6 6 6 6 6 6 6 6 6 6 6 7 8 8 7 7 7 8 9 10 10 11 11 11 10 10 11 6 5 6 7 7 6 5 5 4 4 3 4 4 4 5 5 7 9 11 13 15 18 19 18 16 13 12 11 11 11 11 12 13 13 12 11 15 17 16 15 15 16 16 16 14 12 10 8 7 6 5 5
5 5 5 5 5 5 5 5 5 5 6 6 6 6 6 6 7 7 7 6 6 6 6 6 6 6 6 6 6 6 6 6 6 7 7 8 9 9 8 7 7 6 5 7 8 11 15 11 7 8 14 10 6 5 6 6 6 5 4 3 3 4 4 4 5 5 6 8 10 13 15 20 22 22 20 16 12 10 10 10 10 11 12 16 16 15 15 18 19 18 16 16 17 17 15 13 11 9 8 8 7 6 5
6 6 6 6 6 6 6 6 6 6 7 7 7 7 7 7 7 7 7 6 6 6 6 6 6 6 6 6 6 6 6 7 7 8 9 9 9 9 9 9 8 6 5 6 6 8 12 11 10 9 10 12 10 6 4 4 4 4 3 3 3 4 4 5 5 6 8 10 12 15 19 24 26 26 21 15 10 9 9 10 10 11 14 17 17 16 18 19 19 18 17 17 17 17 14 12 10 9 8 8 7 6 5
7 7 7 7 7 7 7 7 7 7 7 7 7 7 7 7 7 7 7 7 7 6 6 6 6 5 5 5 6 6 7 8 8 9 10 11 11 9 8 8 7 6 6 7 8 9 8 9 10 11 8 10 11 10 6 4 3 3 3 3 4 4 5 6 6 7 9 11 14 19 24 29 30 28 21 14 10 9 10 10 11 12 15 18 18 17 17 16 17 17 18 18 18 17 14 12 10 9 8 7 6 5 5
8 8 8 8 8 8 8 8 8 8 8 8 8 8 8 8 8 7 7 7 6 6 6 5 5 5 5 6 6 7 8 9 10 10 10 12 12 11 8 7 6 6 7 9 10 10 9 9 8 8 7 8 9 9 8 5 3 3 3 3 4 5 6 6 7 8 10 13 17 23 29 32 31 27 20 14 11 11 12 13 13 15 17 20 19 17 15 14 15 17 19 19 19 17 14 12 10 8 6 5 5 5 5
Height
5874 5874 5874 5873 5873 5873 5873 5873 5873 5873 5872 5872 5872 5872 5872 5872 5872 5872 5872 5871 5871 5871 5871 5871 5871 5871 5871 5871 5871 5871 5871 5871 5871 5871 5871 5870 5870 5870 5870 5870 5870 5870 5870 5870 5870 5870 5870 5870 5869 5869 5869 5869 5869 5869 5869 5869 5869 5869 5869 5869 5869 5869 5869 5869 5869 5869 5869 5869 5869 5869 5868 5868 5868 5868 5868 5868 5868 5868 5868 5868 5868 5868 5868 5868 5868 5868 5868 5868 5869 5869 5869 5869 5869 5870 5870 5870 5870 5871 5871 5871 5872 5872 5872
5873 5873 5873 5873 5872 5872 5872 5872 5872 5872 5872 5872 5871 5871 5871 5871 5871 5871 5870 5870 5870 5870 5870 5870 5870 5870 5870 5870 5870 5869 5869 5869 5869 5869 5869 5869 5869 5869 5869 5869 5869 5869 5869 5868 5868 5868 5868 5868 5868 5868 5868 5868 5867 5867 5867 5867 5867 5867 5867 5867 5867 5867 5867 5867 5867 5867 5867 5867 5867 5867 5867 5867 5867 5867 5867 5867 5867 5867 5867 5867 5867 5867 5867 5867 5867 5867 5867 5867 5867 5867 5867 5867 5867 5867 5868 5868 5868 5868 5869 5869 5869 5869 5870
5872 5872 5872 5872 5872 5872 5871 5871 5871 5871 5871 5871 5870 5870 5870 5870 5870 5870 5869 5869 5869 5869 5869 5869 5868 5868 5868 5868 5868 5868 5868 5868 5868 5868 5868 5868 5868 5867 5867 5867 5867 5867 5867 5867 5867 5867 5867 5867 5867 5867 5866 5866 5866 5866 5866 5866 5866 5866 5865 5865 5865 5865 5865 5865 5865 5865 5865 5865 5865 5865 5865 5865 5865 5865 5865 5865 5865 5865 5865 5865 5865 5864 5864 5864 5864 5864 5864 5865 5865 5865 5865 5865 5865 5865 5865 5866 5866 5866 5867 5867 5867 5867 5867
5872 5872 5871 5871 5871 5871 5871 5870 5870 5870 5870 5870 5869 5869 5869 5869 5869 5868 5868 5868 5868 5868 5867 5867 5867 5867 5867 5867 5867 5867 5867 5867 5866 5866 5866 5866 5866 5866 5866 5866 5866 5866 5866 5866 5866 5865 5865 5865 5865 5865 5865 5865 5864 5864 5864 5864 5864 5864 5864 5864 5863 5863 5863 5863 5863 5863 5863 5863 5863 5863 5863 5863 5863 5863 5863 5863 5863 5863 5863 5863 5863 5862 5862 5862 5862 5862 5862 5862 5862 5862 5862 5863 5863 5863 5863 5863 5863 5864 5864 5864 5865 5865 5865
5871 5871 5870 5870 5870 5870 5870 5869 5869 5869 5869 5868 5868 5868 5868 5868 5867 5867 5867 5867 5867 5867 5867 5866 5866 5866 5866 5866 5865 5865 5865 5865 5865 5865 5865 5865 5864 5864 5864 5864 5864 5864 5864 5864 5864 5864 5863 5863 5863 5863 5863 5863 5863 5862 5862 5862 5862 5862 5862 5862 5862 5862 5862 5862 5862 5862 5861 5861 5861 5861 5861 5861 5861 5861 5861 5861 5861 5861 5861 5861 5861 5861 5861 5861 5860 5860 5860 5860 5860 5860 5860 5860 5860 5861 5861 5861 5861 5861 5862 5862 5862 5862 5863
5870 5870 5869 5869 5869 5869 5869 5868 5868 5868 5868 5867 5867 5867 5867 5867 5867 5866 5866 5866 5866 5865 5865 5865 5865 5865 5864 5864 5864 5864 5863 5863 5863 5863 5863 5863 5863 5862 5862 5862 5862 5862 5862 5862 5862 5862 5862 5862 5861 5861 5861 5861 5861 5861 5861 5861 5860 5860 5860 5860 5860 5860 5860 5860 5860 5860 5859 5859 5859 5859 5859 5859 5858 5858 5858 5858 5858 5858 5858 5858 5858 5858 5858 5858 5858 5858 5858 5858 5858 5858 5858 5858 5858 5858 5858 5858 5858 5859 5859 5859 5859 5860 5860
5869 5869 5868 5868 5868 5868 5867 5867 5867 5867 5867 5867 5866 5866 5866 5866 5866 5865 5865 5865 5865 5864 5864 5864 5863 5863 5863 5863 5862 5862 5862 5862 5862 5862 5861 5861 5861 5861 5861 5861 5861 5860 5860 5860 5860 5860 5860 5859 5859 5859 5859 5859 5859 5859 5859 5858 5858 5858 5858 5858 5858 5858 5858 5858 5858 5857 5857 5857 5857 5857 5857 5857 5857 5856 5856 5856 5856 5856 5856 5856 5856 5856 5856 5856 5856 5856 5856 5856 5856 5856 5856 5856 5856 5856 5856 5856 5856 5856 5857 5857 5857 5857 5857
5868 5868 5867 5867 5867 5867 5867 5866 5866 5866 5866 5865 5865 5865 5865 5865 5864 5864 5864 5864 5863 5863 5863 5862 5862 5862 5862 5862 5861 5861 5861 5861 5860 5860 5860 5860 5859 5859 5859 5859 5859 5858 5858 5858 5858 5858 5858 5857 5857 5857 5857 5857 5857 5857 5857 5857 5856 5856 5856 5856 5856 5856 5856 5856 5856 5855 5855 5855 5855 5855 5855 5854 5854 5854 5854 5854 5853 5853 5853 5853 5853 5853 5853 5853 5853 5853 5853 5853 5853 5853 5853 5853 5853 5853 5854 5854 5854 5854 5854 5854 5854 5854 5855
5867 5867 5867 5866 5866 5866 5866 5865 5865 5865 5865 5864 5864 5864 5864 5863 5863 5863 5863 5862 5862 5862 5862 5862 5861 5861 5861 5861 5860 5860 5860 5859 5859 5859 5858 5858 5858 5858 5857 5857 5857 5857 5857 5857 5856 5856 5856 5856 5856 5855 5855 5855 5855 5855 5855 5854 5854 5854 5854 5854 5854 5854 5853 5853 5853 5853 5853 5853 5853 5853 5852 5852 5852 5852 5852 5852 5852 5851 5851 5851 5851 5851 5851 5851 5850 5850 5850 5851 5851 5851 5851 5851 5851 5851 5851 5851 5851 5851 5852 5852 5852 5852 5852
5866 5866 5866 5865 5865 5865 5864 5864 5864 5864 5863 5863 5863 5863 5862 5862 5862 5862 5862 5861 5861 5861 5861 5860 5860 5860 5860 5859 5859 5859 5859 5858 5858 5858 5857 5857 5857 5857 5856 5856 5856 5855 5855 5855 5855 5854 5854 5854 5854 5853 5853 5853 5853 5853 5853 5852 5852 5852 5852 5852 5852 5852 5852 5851 5851 5851 5851 5851 5851 5850 5850 5850 5850 5850 5850 5850 5849 5849 5849 5849 5849 5848 5848 5848 5848 5848 5847 5847 5848 5848 5848 5848 5848 5848 5848 5848 5849 5849 5849 5849 5849 5849 5849
5865 5865 5865 5864 5864 5864 5863 5863 5863 5862 5862 5862 5862 5862 5862 5861 5861 5861 5860 5860 5860 5860 5859 5859 5859 5859 5858 5858 5858 5858 5857 5857 5857 5857 5857 5856 5856 5855 5855 5855 5854 5854 5854 5853 5853 5853 5853 5852 5852 5852 5852 5852 5851 5851 5851 5851 5851 5850 5850 5850 5850 5850 5849 5849 5849 5849 5848 5848 5848 5848 5848 5848 5848 5847 5847 5847 5847 5847 5847 5847 5847 5846 5846 5846 5846 5846 5845 5845 5845 5845 5845 5845 5845 5846 5846 5846 5846 5846 5846 5846 5846 5847 5847
5864 5864 5864 5863 5863 5863 5862 5862 5862 5862 5861 5861 5861 5861 5860 5860 5860 5860 5859 5859 5859 5858 5858 5858 5858 5857 5857 5857 5857 5857 5856 5856 5856 5856 5855 5855 5855 5854 5854 5854 5853 5853 5852 5852 5852 5852 5851 5851 5851 5850 5850 5850 5850 5849 5849 5849 5849 5848 5848 5848 5848 5847 5847 5847 5847 5847 5847 5846 5846 5846 5846 5845 5845 5845 5845 5845 5845 5844 5844 5844 5844 5844 5844 5844 5844 5843 5843 5843 5843 5843 5842 5842 5842 5843 5843 5843 5843 5843 5843 5843 5844 5844 5844
5863 5863 5863 5862 5862 5862 5861 5861 5861 5861 5860 5860 5860 5859 5859 5859 5859 5858 5858 5858 5857 5857 5857 5857 5857 5856 5856 5856 5856 5855 5855 5855 5855 5854 5854 5854 5853 5853 5853 5852 5852 5852 5852 5851 5851 5850 5850 5849 5849 5849 5848 5848 5848 5847 5847 5847 5847 5847 5846 5846 5846 5846 5845 5845 5845 5845 5844 5844 5844 5843 5843 5843 5843 5842 5842 5842 5842 5842 5842 5842 5842 5842 5841 5841 5841 5841 5841 5841 5841 5840 5840 5840 5840 5840 5840 5840 5840 5840 5840 5841 5841 5841 5841
5862 5862 5862 5861 5861 5861 5860 5860 5860 5859 5859 5859 5858 5858 5858 5858 5857 5857 5857 5857 5857 5856 5856 5856 5855 5855 5855 5855 5854 5854 5854 5853 5853 5853 5852 5852 5852 5852 5852 5851 5851 5851 5850 5850 5849 5849 5848 5848 5847 5847 5847 5846 5846 5846 5846 5845 5845 5845 5844 5844 5844 5844 5843 5843 5843 5842 5842 5842 5842 5841 5841 5841 5841 5840 5840 5840 5839 5839 5839 5839 5839 5839 5838 5838 5838 5838 5838 5838 5838 5838 5838 5838 5838 5838 5837 5837 5837 5837 5837 5837 5837 5838 5838
5861 5861 5860 5860 5860 5859 5859 5859 5858 5858 5858 5857 5857 5857 5857 5857 5856 5856 5856 5856 5855 5855 5855 5854 5854 5854 5853 5853 5853 5852 5852 5852 5852 5851 5851 5851 5851 5850 5850 5850 5849 5849 5849 5848 5848 5847 5847 5846 5846 5845 5845 5845 5844 5844 5843 5843 5843 5842 5842 5842 5842 5842 5841 5841 5841 5840 5840 5839 5839 5839 5839 5838 5838 5838 5837 5837 5837 5837 5837 5836 5836 5836 5836 5836 5836 5835 5835 5835 5835 5835 5835 5835 5835 5835 5835 5835 5835 5835 5835 5835 5835 5835 5835
5860 5859 5859 5859 5858 5858 5858 5857 5857 5857 5857 5856 5856 5856 5855 5855 5855 5855 5854 5854 5854 5854 5853 5853 5853 5852 5852 5852 5852 5851 5851 5851 5850 5850 5849 5849 5849 5848 5848 5848 5848 5847 5847 5847 5846 5846 5845 5845 5844 5844 5843 5843 5842 5842 5842 5841 5841 5841 5840 5840 5840 5839 5839 5838 5838 5838 5837 5837 5837 5836 5836 5836 5836 5835 5835 5835 5834 5834 5834 5833 5833 5833 5833 5833 5832 5832 5832 5832 5832 5832 5832 5832 5832 5832 5832 5832 5832 5832 5832 5832 5832 5832 5832
5858 5858 5858 5857 5857 5857 5857 5856 5856 5856 5855 5855 5855 5854 5854 5854 5853 5853 5853 5853 5852 5852 5852 5852 5851 5851 5851 5850 5850 5850 5849 5849 5849 5848 5848 5847 5847 5847 5847 5846 5846 5845 5845 5845 5844 5844 5843 5843 5842 5842 5842 5841 5841 5840 5840 5839 5839 5838 5838 5838 5837 5837 5837 5836 5836 5835 5835 5834 5834 5834 5833 5833 5833 5832 5832 5832 5832 5831 5831 5831 5830 5830 5830 5830 5830 5829 5829 5829 5829 5829 5829 5829 5829 5829 5829 5829 5829 5829 5829 5829 5829 5829 5829
5857 5857 5856 5856 5856 5855 5855 5855 5854 5854 5854 5854 5853 5853 5853 5852 5852 5852 5852 5851 5851 5851 5850 5850 5850 5849 5849 5849 5848 5848 5847 5847 5847 5847 5846 5846 5845 5845 5845 5844 5844 5843 5843 5842 5842 5842 5841 5841 5840 5840 5839 5839 5838 5838 5837 5837 5837 5837 5836 5836 5835 5835 5834 5834 5833 5833 5832 5832 5832 5831 5831 5830 5830 5830 5829 5829 5829 5828 5828 5828 5827 5827 5827 5827 5827 5826 5826 5826 5826 5826 5825 5825 5825 5825 5825 5826 5826 5826 5826 5826 5826 5826 5826
5856 5855 5855 5855 5854 5854 5854 5853 5853 5853 5852 5852 5852 5852 5851 5851 5851 5850 5850 5850 5849 5849 5848 5848 5848 5847 5847 5847 5847 5846 5846 5845 5845 5845 5844 5844 5843 5843 5843 5842 5842 5841 5841 5840 5840 5839 5839 5838 5838 5838 5837 5837 5836 5836 5835 5835 5835 5834 5834 5833 5833 5832 5832 5832 5831 5830 5830 5829 5829 5828 5828 5827 5827 5827 5827 5826 5826 5826 5825 5825 5824 5824 5824 5823 5823 5823 5823 5822 5822 5822 5822 5822 5822 5822 5822 5822 5822 5822 5822 5822 5822 5822 5823
5854 5854 5853 5853 5853 5852 5852 5852 5852 5851 5851 5851 5850 5850 5850 5849 5849 5849 5848 5848 5847 5847 5847 5847 5846 5846 5845 5845 5844 5844 5844 5843 5843 5843 5842 5842 5842 5841 5841 5840 5840 5839 5838 5838 5837 5837 5837 5836 5836 5835 5835 5834 5834 5833 5833 5832 5832 5832 5831 5831 5830 5830 5830 5829 5828 5828 5827 5827 5826 5826 5825 5825 5824 5824 5823 5823 5823 5822 5822 5822 5821 5821 5821 5820 5820 5820 5820 5819 5819 5819 5819 5818 5818 5818 5818 5818 5818 5818 5818 5818 5819 5819 5819
5852 5852 5852 5852 5851 5851 5851 5850 5850 5850 5849 5849 5849 5848 5848 5848 5847 5847 5847 5846 5846 5846 5845 5845 5844 5844 5843 5843 5842 5842 5842 5841 5841 5840 5840 5840 5839 5839 5838 5838 5837 5837 5836 5836 5835 5835 5834 5834 5833 5833 5832 5832 5832 5831 5830 5830 5829 5829 5829 5828 5828 5827 5827 5827 5826 5825 5825 5824 5824 5823 5823 5822 5822 5821 5821 5820 5820 5819 5819 5818 5818 5818 5817 5817 5817 5817 5816 5816 5816 5815 5815 5815 5815 5815 5815 5815 5815 5815 5815 5815 5815 5815 5815
5851 5851 5850 5850 5850 5849 5849 5848 5848 5848 5847 5847 5847 5847 5846 5846 5846 5845 5845 5845 5844 5844 5843 5843 5842 5842 5842 5841 5840 5840 5839 5839 5838 5838 5837 5837 5837 5836 5836 5835 5835 5834 5834 5833 5833 5832 5832 5831 5831 5830 5830 5829 5829 5828 5828 5827 5827 5826 5826 5825 5825 5824 5824 5824 5823 5822 5822 5822 5821 5821 5820 5819 5819 5818 5818 5817 5817 5816 5816 5815 5815 5815 5814 5814 5813 5813 5812 5812 5812 5812 5812 5812 5812 5811 5811 5811 5811 5811 5811 5811 5811 5811 5811
5849 5849 5849 5848 5848 5847 5847 5847 5847 5846 5846 5846 5845 5845 5844 5844 5844 5843 5843 5842 5842 5842 5842 5841 5841 5840 5840 5839 5838 5838 5837 5837 5836 5836 5835 5835 5834 5834 5833 5833 5832 5832 5831 5831 5830 5830 5829 5829 5828 5828 5827 5827 5826 5826 5825 5825 5824 5824 5823 5822 5822 5822 5821 5821 5820 5820 5819 5818 5818 5817 5817 5817 5816 5816 5815 5814 5814 5813 5813 5812 5812 5811 5811 5810 5810 5810 5809 5809 5808 5808 5808 5808 5808 5808 5807 5807 5807 5807 5807 5807 5807 5807 5807
5848 5847 5847 5847 5846 5846 5846 5845 5845 5844 5844 5843 5843 5843 5842 5842 5842 5842 5841 5841 5840 5840 5839 5839 5838 5838 5837 5837 5836 5836 5835 5835 5834 5834 5833 5832 5832 5831 5831 5830 5830 5829 5829 5828 5827 5827 5827 5826 5826 5825 5824 5824 5823 5823 5823 5822 5822 5821 5820 5820 5819 5819 5818 5817 5817 5817 5816 5815 5815 5814 5814 5813 5813 5812 5812 5811 5811 5810 5809 5809 5808 5808 5807 5807 5807 5806 5806 5805 5805 5804 5804 5804 5804 5804 5804 5804 5804 5803 5803 5803 5803 5803 5803
5846 5846 5845 5845 5845 5844 5844 5843 5843 5842 5842 5842 5841 5841 5840 5840 5840 5839 5839 5838 5838 5837 5837 5837 5836 5836 5835 5835 5834 5834 5833 5833 5832 5832 5831 5830 5829 5829 5828 5827 5827 5827 5826 5825 5825 5824 5824 5823 5822 5822 5822 5821 5821 5820 5820 5819 5819 5818 5817 5817 5816 5816 5815 5815 5814 5813 5813 5812 5812 5811 5810 5810 5809 5809 5808 5808 5807 5807 5806 5806 5805 5804 5804 5803 5803 5802 5802 5802 5801 5801 5800 5800 5800 5800 5800 5800 5800 5800 5799 5799 5799 5799 5799
5844 5844 5843 5843 5843 5842 5842 5842 5841 5841 5840 5840 5839 5839 5838 5838 5837 5837 5837 5836 5836 5835 5835 5834 5834 5833 5833 5832 5832 5831 5831 5830 5830 5829 5828 5828 5827 5826 5826 5825 5824 5824 5823 5822 5822 5822 5821 5820 5820 5819 5818 5818 5817 5817 5817 5816 5816 5815 5815 5814 5813 5812 5812 5811 5811 5810 5810 5809 5808 5807 5807 5806 5806 5805 5805 5804 5804 5803 5802 5802 5802 5801 5800 5800 5799 5799 5798 5798 5797 5797 5797 5796 5796 5796 5796 5796 5795 5795 5795 5795 5795 5795 5795
5842 5842 5841 5841 5841 5840 5840 5839 5839 5839 5838 5838 5837 5837 5836 5836 5835 5835 5834 5834 5833 5833 5832 5832 5831 5831 5831 5830 5829 5829 5828 5827 5827 5827 5826 5825 5825 5824 5823 5822 5822 5821 5820 5820 5819 5819 5818 5817 5817 5816 5816 5815 5814 5814 5813 5813 5812 5812 5811 5811 5810 5809 5809 5808 5807 5807 5806 5806 5805 5804 5803 5803 5802 5802 5801 5800 5800 5799 5799 5798 5798 5797 5797 5796 5796 5795 5794 5794 5793 5793 5792 5792 5792 5792 5791 5791 5791 5791 5791 5791 5791 5791 5791
5840 5839 5839 5839 5838 5838 5838 5837 5837 5837 5836 5836 5835 5835 5834 5834 5833 5832 5832 5832 5831 5831 5830 5829 5829 5828 5828 5827 5827 5826 5825 5825 5824 5823 5823 5822 5822 5821 5821 5820 5819 5818 5817 5817 5816 5816 5815 5814 5814 5813 5812 5812 5811 5810 5810 5809 5809 5808 5808 5807 5807 5806 5805 5805 5804 5803 5802 5802 5801 5800 5800 5799 5798 5797 5797 5796 5796 5795 5794 5794 5793 5793 5793 5792 5792 5791 5791 5790 5790 5789 5788 5788 5787 5787 5787 5787 5787 5787 5787 5787 5787 5787 5786
5838 5838 5837 5837 5837 5836 5836 5835 5835 5834 5834 5834 5833 5833 5832 5832 5831 5831 5830 5829 5829 5828 5827 5827 5826 5826 5825 5824 5824 5823 5822 5822 5821 5821 5820 5820 5819 5818 5818 5817 5816 5816 5815 5814 5813 5813 5812 5812 5811 5810 5809 5809 5808 5807 5806 5806 5805 5805 5804 5803 5803 5802 5802 5801 5800 5799 5799 5798 5797 5797 5796 5795 5794 5794 5793 5792 5792 5791 5790 5790 5789 5789 5788 5788 5787 5787 5787 5786 5785 5785 5784 5784 5783 5783 5782 5782 5782 5782 5782 5782 5782 5782 5782
5837 5836 5836 5835 5834 5834 5833 5833 5832 5832 5832 5831 5831 5831 5830 5830 5829 5828 5828 5827 5827 5826 5825 5825 5824 5823 5822 5822 5821 5821 5820 5819 5819 5818 5817 5817 5816 5815 5815 5814 5813 5813 5812 5811 5810 5810 5809 5808 5807 5807 5806 5805 5805 5804 5803 5802 5802 5801 5800 5800 5799 5798 5797 5797 5796 5795 5795 5794 5793 5792 5792 5791 5790 5790 5789 5788 5787 5787 5786 5785 5785 5784 5784 5783 5783 5782 5782 5782 5781 5781 5780 5780 5779 5779 5778 5778 5778 5777 5777 5777 5777 5777 5777
5835 5835 5834 5833 5833 5832 5831 5831 5830 5830 5829 5829 5828 5828 5828 5827 5827 5827 5826 5825 5824 5824 5823 5822 5821 5821 5820 5819 5818 5818 5817 5817 5816 5815 5814 5814 5813 5812 5812 5811 5810 5810 5809 5808 5807 5807 5806 5805 5804 5804 5803 5802 5801 5800 5799 5799 5798 5797 5796 5796 5795 5794 5793 5793 5792 5791 5791 5790 5789 5788 5788 5787 5786 5785 5784 5784 5783 5782 5782 5781 5780 5780 5779 5779 5778 5778 5777 5777 5777 5776 5776 5775 5775 5774 5774 5773 5773 5773 5773 5772 5772 5773 5773
5833 5833 5832 5832 5831 5830 5829 5828 5828 5827 5827 5826 5826 5825 5825 5825 5825 5824 5823 5823 5822 5821 5820 5820 5819 5818 5817 5816 5816 5815 5814 5814 5813 5812 5812 5811 5810 5809 5809 5808 5807 5807 5806 5805 5804 5804 5803 5802 5801 5800 5800 5799 5798 5797 5796 5795 5794 5793 5792 5792 5791 5790 5790 5789 5788 5787 5787 5786 5785 5784 5783 5782 5782 5781 5780 5779 5778 5778 5777 5776 5776 5775 5774 5774 5773 5773 5773 5772 5772 5772 5771 5771 5770 5770 5769 5769 5769 5768 5768 5768 5768 5768 5768
5831 5830 5830 5829 5829 5828 5827 5826 5826 5825 5824 5824 5823 5823 5822 5822 5822 5822 5821 5820 5819 5819 5818 5817 5816 5815 5814 5813 5812 5812 5811 5811 5810 5809 5808 5808 5807 5806 5806 5805 5804 5803 5803 5802 5801 5800 5800 5799 5798 5797 5796 5796 5795 5794 5793 5792 5791 5790 5789 5788 5787 5786 5786 5785 5784 5783 5782 5781 5781 5780 5779 5778 5777 5777 5776 5775 5774 5773 5772 5772 5771 5770 5770 5769 5768 5768 5768 5767 5767 5767 5767 5766 5766 5765 5765 5764 5764 5764 5763 5763 5763 5763 5763
5827 5827 5827 5827 5826 5826 5825 5824 5823 5822 5822 5822 5821 5820 5820 5819 5819 5819 5818 5817 5817 5816 5815 5814 5813 5812 5811 5810 5809 5808 5808 5807 5807 5806 5805 5805 5804 5803 5802 5802 5801 5800 5800 5799 5798 5797 5796 5796 5795 5794 5793 5792 5791 5790 5789 5788 5787 5786 5785 5784 5783 5782 5782 5781 5780 5779 5778 5777 5776 5775 5774 5774 5773 5772 5771 5770 5769 5768 5768 5767 5766 5766 5765 5764 5764 5763 5763 5762 5762 5762 5761 5761 5761 5760 5760 5759 5759 5759 5758 5758 5758 5758 5758
5825 5824 5824 5824 5823 5823 5822 5821 5821 5820 5819 5819 5818 5818 5817 5817 5816 5816 5815 5815 5814 5813 5812 5811 5810 5809 5808 5807 5806 5805 5805 5804 5803 5803 5802 5801 5801 5800 5799 5798 5797 5797 5796 5795 5794 5794 5793 5792 5791 5790 5789 5788 5787 5787 5786 5785 5783 5782 5781 5780 5779 5778 5777 5777 5776 5775 5774 5773 5772 5771 5770 5769 5768 5767 5767 5766 5765 5764 5763 5762 5762 5761 5760 5760 5759 5758 5758 5757 5757 5757 5756 5756 5756 5755 5755 5755 5754 5754 5753 5753 5753 5753 5753
5822 5822 5821 5821 5820 5820 5819 5818 5817 5817 5817 5816 5816 5815 5814 5814 5813 5813 5812 5812 5811 5810 5809 5808 5807 5806 5805 5804 5803 5802 5801 5801 5800 5799 5799 5798 5797 5796 5796 5795 5794 5793 5792 5792 5791 5790 5789 5788 5787 5786 5786 5785 5784 5783 5782 5781 5780 5778 5777 5776 5775 5774 5773 5772 5771 5771 5770 5768 5767 5767 5766 5765 5764 5763 5762 5761 5760 5760 5759 5758 5757 5756 5756 5755 5754 5754 5753 5752 5752 5752 5751 5751 5751 5750 5750 5749 5749 5749 5748 5748 5748 5748 5748
5819 5819 5818 5818 5817 5817 5816 5815 5814 5814 5814 5813 5812 5812 5811 5811 5810 5810 5809 5808 5807 5807 5806 5805 5804 5803 5802 5801 5800 5799 5798 5797 5797 5796 5795 5794 5794 5793 5792 5791 5790 5790 5789 5788 5787 5786 5785 5784 5783 5782 5782 5781 5780 5779 5778 5777 5776 5774 5773 5772 5771 5770 5769 5768 5767 5766 5765 5764 5763 5762 5761 5760 5759 5758 5757 5757 5756 5755 5754 5753 5752 5752 5751 5750 5750 5749 5748 5748 5747 5747 5746 5746 5745 5745 5745 5744 5744 5743 5743 5743 5742 5742 5742
5817 5816 5816 5815 5814 5813 5812 5812 5811 5811 5810 5810 5809 5809 5808 5807 5807 5806 5806 5805 5804 5803 5802 5802 5801 5800 5799 5797 5797 5796 5795 5794 5793 5792 5792 5791 5790 5789 5788 5787 5787 5786 5785 5784 5783 5782 5781 5780 5779 5778 5777 5777 5776 5775 5774 5773 5772 5770 5769 5768 5767 5766 5764 5763 5762 5762 5761 5760 5759 5758 5757 5756 5755 5754 5753 5752 5751 5750 5749 5748 5748 5747 5746 5746 5745 5744 5743 5743 5742 5742 5741 5741 5741 5740 5740 5739 5739 5738 5738 5738 5737 5737 5737
5814 5813 5813 5812 5811 5810 5810 5809 5808 5807 5807 5807 5806 5806 5805 5804 5803 5803 5802 5801 5800 5799 5799 5798 5797 5796 5795 5794 5793 5792 5792 5791 5790 5789 5788 5787 5786 5785 5784 5784 5783 5782 5781 5780 5779 5778 5777 5776 5775 5774 5773 5773 5772 5771 5770 5768 5767 5766 5765 5764 5762 5761 5760 5759 5758 5757 5756 5755 5754 5753 5752 5751 5750 5749 5748 5747 5747 5746 5745 5744 5743 5742 5741 5741 5740 5739 5739 5738 5737 5737 5737 5736 5736 5735 5735 5734 5733 5733 5733 5732 5732 5732 5732
5811 5810 5810 5809 5808 5807 5807 5806 5805 5804 5804 5803 5803 5802 5802 5801 5800 5799 5798 5797 5797 5796 5795 5794 5793 5792 5792 5791 5790 5789 5788 5787 5786 5785 5784 5783 5782 5781 5780 5780 5779 5778 5777 5776 5775 5774 5773 5772 5771 5770 5769 5768 5767 5766 5765 5764 5763 5762 5761 5759 5758 5757 5756 5754 5753 5752 5751 5750 5749 5748 5747 5747 5745 5744 5743 5742 5742 5741 5740 5739 5738 5737 5736 5736 5735 5734 5733 5733 5732 5732 5732 5731 5731 5730 5730 5729 5728 5728 5727 5727 5727 5727 5727
5808 5807 5807 5806 5805 5804 5803 5802 5802 5801 5801 5800 5800 5799 5798 5797 5797 5796 5795 5794 5793 5792 5791 5790 5789 5788 5788 5787 5787 5786 5785 5784 5783 5782 5780 5779 5778 5777 5776 5775 5775 5774 5773 5772 5771 5770 5769 5768 5767 5766 5765 5764 5763 5762 5760 5759 5758 5757 5756 5755 5754 5752 5751 5750 5749 5747 5747 5746 5745 5744 5743 5742 5741 5740 5739 5738 5737 5736 5735 5734 5733 5732 5731 5731 5730 5729 5728 5728 5727 5727 5726 5726 5726 5725 5725 5724 5723 5723 5722 5722 5722 5722 5721
5805 5804 5803 5802 5802 5801 5800 5799 5798 5798 5797 5797 5796 5796 5795 5794 5793 5792 5791 5790 5789 5788 5787 5786 5785 5784 5784 5783 5782 5782 5781 5780 5779 5778 5777 5775 5774 5773 5772 5771 5770 5769 5768 5767 5766 5765 5764 5763 5762 5762 5761 5759 5758 5757 5756 5754 5753 5752 5751 5750 5749 5748 5747 5745 5744 5743 5742 5741 5740 5739 5738 5737 5736 5735 5734 5733 5732 5731 5730 5729 5728 5727 5726 5725 5725 5724 5723 5723 5722 5722 5721 5720 5720 5720 5720 5719 5719 5718 5717 5717 5717 5716 5716
5802 5801 5800 5799 5798 5797 5797 5796 5795 5795 5794 5793 5793 5792 5792 5791 5789 5788 5787 5786 5785 5784 5783 5782 5781 5780 5780 5779 5778 5778 5777 5776 5775 5774 5772 5771 5770 5769 5768 5767 5766 5765 5764 5763 5762 5761 5760 5759 5758 5757 5756 5755 5753 5752 5751 5750 5749 5748 5747 5745 5744 5743 5742 5741 5740 5738 5737 5737 5735 5734 5733 5732 5731 5730 5729 5728 5727 5726 5725 5724 5723 5722 5721 5720 5720 5719 5718 5717 5717 5716 5716 5715 5715 5714 5714 5714 5713 5713 5712 5712 5712 5711 5711
5798 5797 5796 5796 5795 5794 5793 5792 5792 5791 5791 5790 5789 5789 5788 5787 5786 5785 5783 5782 5781 5780 5779 5778 5777 5776 5775 5775 5774 5773 5772 5772 5770 5769 5768 5767 5766 5765 5764 5762 5762 5760 5759 5758 5757 5756 5755 5755 5754 5753 5752 5750 5749 5748 5747 5745 5744 5743 5742 5741 5739 5738 5737 5736 5735 5734 5733 5732 5731 5730 5729 5727 5726 5725 5724 5723 5722 5721 5720 5719 5718 5717 5716 5715 5715 5714 5713 5712 5712 5711 5711 5710 5709 5709 5708 5708 5708 5708 5707 5707 5707 5706 5706
5794 5793 5792 5792 5791 5790 5789 5789 5788 5787 5787 5787 5786 5785 5784 5783 5782 5781 5780 5778 5777 5776 5775 5774 5773 5772 5771 5771 5770 5769 5768 5767 5766 5765 5764 5762 5762 5761 5760 5758 5757 5756 5755 5753 5752 5752 5751 5750 5749 5748 5747 5746 5744 5743 5742 5741 5740 5738 5737 5736 5735 5733 5732 5731 5730 5729 5728 5727 5726 5725 5724 5723 5722 5721 5719 5718 5717 5716 5715 5714 5713 5712 5711 5710 5709 5708 5708 5707 5707 5706 5705 5705 5704 5703 5703 5702 5702 5702 5702 5702 5702 5701 5701
5790 5789 5789 5788 5787 5786 5786 5785 5784 5784 5783 5782 5782 5781 5780 5779 5778 5777 5776 5774 5773 5772 5771 5770 5769 5768 5767 5767 5765 5764 5763 5762 5761 5760 5759 5758 5757 5757 5756 5754 5753 5752 5750 5749 5748 5747 5746 5745 5744 5743 5742 5741 5740 5739 5737 5736 5735 5734 5733 5732 5730 5729 5727 5726 5725 5724 5723 5722 5722 5720 5719 5718 5717 5716 5715 5713 5712 5711 5710 5708 5707 5707 5706 5705 5704 5703 5702 5702 5701 5700 5700 5699 5698 5698 5697 5697 5697 5696 5696 5696 5696 5696 5695
5787 5786 5785 5784 5783 5782 5782 5781 5780 5780 5779 5778 5778 5777 5776 5775 5774 5773 5772 5771 5769 5768 5767 5766 5765 5764 5763 5762 5761 5760 5759 5758 5757 5755 5754 5753 5753 5752 5752 5750 5749 5747 5746 5745 5744 5743 5742 5741 5740 5738 5737 5737 5735 5734 5733 5732 5730 5729 5728 5727 5726 5724 5723 5722 5721 5720 5719 5718 5717 5715 5714 5713 5712 5711 5710 5708 5707 5706 5704 5703 5702 5701 5700 5699 5698 5697 5697 5696 5695 5694 5694 5693 5693 5692 5692 5691 5691 5691 5690 5690 5690 5690 5689
5783 5782 5781 5780 5779 5778 5778 5777 5776 5775 5775 5774 5773 5773 5772 5771 5770 5769 5768 5767 5765 5764 5763 5762 5761 5760 5759 5758 5757 5756 5755 5753 5752 5751 5749 5749 5748 5748 5747 5746 5744 5743 5742 5741 5740 5739 5737 5736 5735 5734 5733 5732 5731 5729 5728 5727 5726 5725 5724 5722 5721 5720 5718 5717 5716 5715 5714 5713 5712 5710 5709 5708 5707 5706 5704 5703 5702 5701 5699 5698 5697 5696 5695 5694 5693 5692 5691 5690 5689 5689 5688 5688 5687 5687 5686 5686 5685 5685 5684 5684 5684 5683 5683
5779 5778 5777 5777 5776 5775 5774 5773 5772 5771 5770 5770 5769 5768 5767 5767 5766 5765 5763 5762 5761 5760 5758 5757 5757 5756 5755 5754 5753 5752 5750 5749 5747 5746 5745 5744 5743 5743 5742 5741 5740 5739 5738 5737 5736 5735 5733 5732 5731 5730 5729 5727 5726 5724 5723 5722 5721 5720 5719 5718 5716 5715 5713 5712 5711 5710 5709 5708 5707 5705 5704 5702 5701 5700 5699 5697 5696 5695 5694 5692 5692 5690 5689 5688 5687 5687 5685 5684 5683 5683 5682 5682 5682 5681 5680 5680 5680 5679 5679 5678 5678 5677 5677
5775 5775 5774 5773 5772 5771 5770 5769 5768 5767 5766 5765 5765 5764 5763 5762 5761 5760 5759 5758 5757 5756 5754 5753 5752 5752 5751 5749 5749 5747 5746 5744 5743 5742 5740 5740 5739 5737 5736 5736 5735 5735 5734 5733 5732 5730 5729 5728 5727 5726 5724 5722 5721 5719 5718 5717 5717 5716 5714 5713 5712 5710 5708 5707 5706 5705 5704 5703 5701 5700 5698 5697 5696 5694 5693 5692 5690 5689 5688 5687 5686 5685 5684 5683 5682 5681 5680 5679 5678 5677 5677 5676 5676 5675 5675 5674 5674 5673 5673 5672 5672 5672 5671
5772 5771 5770 5769 5768 5767 5766 5765 5764 5763 5762 5761 5760 5759 5758 5757 5757 5756 5755 5753 5752 5751 5750 5749 5748 5747 5746 5745 5744 5743 5742 5740 5739 5737 5736 5735 5734 5733 5731 5730 5730 5730 5730 5729 5727 5726 5725 5724 5723 5722 5720 5718 5716 5715 5714 5713 5712 5711 5710 5708 5707 5705 5703 5702 5701 5700 5699 5697 5696 5694 5693 5691 5690 5688 5687 5686 5684 5683 5682 5681 5680 5679 5678 5677 5676 5675 5674 5673 5672 5671 5671 5670 5670 5669 5669 5669 5668 5668 5667 5667 5667 5666 5666
5768 5767 5766 5765 5764 5763 5762 5761 5760 5759 5758 5757 5756 5755 5754 5753 5752 5751 5750 5749 5748 5747 5746 5745 5744 5742 5742 5741 5739 5738 5737 5735 5734 5733 5732 5730 5729 5729 5727 5726 5725 5725 5725 5723 5722 5722 5722 5721 5719 5718 5715 5713 5712 5710 5709 5708 5707 5706 5705 5703 5702 5700 5698 5697 5696 5694 5693 5692 5690 5688 5687 5685 5684 5682 5681 5679 5678 5677 5675 5674 5673 5673 5672 5672 5671 5670 5668 5667 5667 5666 5665 5664 5664 5663 5663 5663 5663 5662 5662 5661 5661 5660 5660
5764 5763 5762 5761 5760 5759 5758 5757 5756 5755 5753 5752 5752 5751 5750 5749 5748 5747 5746 5744 5743 5742 5741 5740 5739 5738 5736 5736 5735 5733 5732 5731 5729 5728 5728 5727 5725 5723 5723 5722 5721 5720 5720 5718 5717 5717 5719 5717 5715 5713 5712 5709 5707 5706 5705 5704 5702 5701 5700 5698 5697 5695 5693 5692 5690 5689 5688 5686 5684 5683 5681 5679 5678 5676 5675 5673 5672 5670 5669 5668 5667 5667 5666 5665 5665 5664 5663 5662 5661 5660 5659 5658 5658 5657 5657 5657 5657 5657 5657 5656 5655 5655 5654
5761 5760 5758 5757 5756 5755 5754 5753 5752 5750 5749 5748 5747 5747 5746 5745 5744 5742 5741 5740 5739 5738 5737 5735 5734 5733 5731 5731 5730 5729 5727 5726 5725 5724 5723 5722 5721 5719 5717 5717 5716 5715 5714 5713 5711 5711 5714 5713 5710 5708 5708 5706 5704 5702 5701 5699 5698 5697 5695 5694 5692 5691 5689 5687 5685 5684 5682 5681 5679 5677 5675 5673 5672 5670 5668 5667 5665 5664 5663 5662 5661 5660 5660 5659 5659 5658 5657 5656 5655 5654 5653 5653 5652 5652 5652 5652 5652 5652 5651 5651 5650 5649 5649
5757 5756 5754 5753 5752 5751 5750 5749 5747 5746 5745 5744 5743 5742 5741 5741 5739 5738 5737 5736 5734 5733 5732 5730 5729 5728 5727 5725 5724 5724 5722 5721 5721 5720 5718 5717 5716 5715 5712 5711 5711 5710 5709 5708 5707 5706 5707 5707 5705 5703 5704 5703 5700 5697 5697 5696 5694 5692 5691 5689 5688 5686 5684 5682 5681 5679 5677 5676 5674 5672 5670 5668 5666 5664 5662 5661 5659 5658 5657 5656 5655 5654 5654 5653 5653 5652 5651 5650 5649 5648 5648 5647 5647 5646 5646 5646 5646 5646 5646 5646 5645 5644 5644
5753 5752 5751 5749 5748 5747 5746 5744 5743 5742 5741 5740 5739 5738 5737 5736 5735 5734 5732 5731 5730 5728 5727 5726 5724 5723 5722 5721 5719 5718 5717 5717 5716 5715 5714 5712 5711 5710 5709 5707 5706 5705 5703 5702 5702 5702 5701 5701 5699 5697 5698 5699 5696 5693 5692 5692 5689 5688 5686 5685 5683 5682 5680 5678 5676 5674 5672 5671 5668 5667 5664 5662 5660 5658 5656 5654 5653 5652 5651 5650 5649 5648 5648 5647 5647 5646 5645 5644 5643 5642 5642 5641 5641 5641 5640 5640 5641 5641 5641 5640 5640 5639 5639
5749 5748 5747 5745 5744 5743 5742 5740 5739 5738 5737 5736 5735 5734 5732 5732 5730 5729 5728 5727 5725 5723 5722 5721 5720 5719 5718 5717 5715 5713 5712 5712 5712 5710 5709 5707 5706 5705 5705 5703 5702 5700 5698 5696 5696 5696 5695 5695 5694 5692 5692 5693 5692 5690 5688 5687 5685 5684 5682 5680 5679 5677 5675 5673 5672 5670 5668 5666 5663 5661 5659 5657 5654 5652 5650 5648 5647 5646 5645 5644 5643 5643 5642 5641 5641 5640 5639 5638 5637 5637 5636 5636 5635 5635 5635 5635 5635 5635 5635 5635 5635 5634 5634
5745 5744 5742 5741 5740 5739 5737 5736 5735 5734 5732 5732 5730 5729 5728 5727 5726 5725 5723 5722 5720 5719 5717 5717 5716 5715 5713 5712 5711 5709 5708 5707 5707 5705 5704 5703 5702 5701 5700 5698 5697 5696 5694 5692 5691 5690 5689 5689 5688 5687 5685 5685 5686 5686 5684 5682 5680 5679 5677 5676 5674 5672 5671 5669 5667 5665 5662 5661 5658 5656 5653 5651 5648 5646 5644 5642 5641 5640 5639 5638 5637 5637 5636 5635 5635 5634 5633 5632 5632 5631 5631 5631 5630 5630 5630 5629 5629 5630 5630 5630 5629 5629 5628
5741 5740 5738 5737 5736 5735 5733 5732 5731 5729 5728 5727 5726 5725 5724 5723 5722 5720 5719 5717 5716 5714 5713 5712 5711 5710 5709 5707 5706 5705 5704 5703 5702 5701 5699 5698 5698 5697 5695 5693 5692 5691 5690 5688 5687 5685 5684 5682 5682 5681 5680 5678 5678 5679 5679 5677 5676 5674 5673 5671 5670 5668 5666 5664 5662 5660 5657 5655 5653 5650 5647 5645 5642 5640 5638 5637 5636 5635 5633 5632 5632 5631 5630 5629 5628 5628 5627 5627 5626 5626 5626 5625 5625 5625 5624 5624 5624 5624 5624 5624 5624 5623 5623
5737 5736 5734 5733 5732 5730 5729 5727 5726 5725 5724 5722 5721 5720 5719 5718 5717 5716 5714 5713 5712 5710 5709 5707 5707 5705 5704 5703 5702 5701 5700 5699 5697 5696 5695 5693 5692 5692 5691 5689 5687 5687 5685 5683 5682 5681 5679 5677 5676 5675 5674 5672 5672 5672 5672 5672 5672 5669 5667 5666 5664 5662 5661 5659 5657 5654 5652 5649 5647 5645 5642 5639 5637 5635 5633 5632 5630 5629 5628 5627 5626 5625 5624 5623 5622 5622 5622 5621 5621 5621 5620 5620 5620 5620 5619 5619 5619 5619 5619 5619 5618 5618 5617
5733 5731 5730 5729 5727 5726 5725 5723 5722 5721 5719 5718 5717 5716 5715 5714 5712 5711 5709 5708 5707 5705 5704 5703 5702 5700 5699 5698 5697 5697 5696 5694 5693 5692 5690 5688 5687 5687 5686 5684 5683 5682 5681 5679 5677 5676 5674 5673 5672 5670 5668 5667 5667 5666 5665 5666 5665 5664 5662 5662 5659 5657 5656 5654 5652 5649 5646 5644 5641 5639 5637 5634 5631 5629 5628 5627 5626 5624 5623 5622 5621 5620 5619 5618 5617 5617 5616 5616 5616 5615 5615 5615 5614 5614 5614 5614 5614 5614 5614 5613 5612 5612 5611